Weather History for Spencer, IA

Change the Weather History Date:

Friday, January 18, 2013

  Actual Average Record
Temperature  
Mean Temperature 37 °F -  
Max Temperature 48 °F 26 °F 48 °F (2013)
Min Temperature 26 °F 5 °F -25 °F (1970)
Degree Days  
Heating Degree Days 28    
Moisture  
Dew Point 28 °F    
Average Humidity 71    
Maximum Humidity 89    
Minimum Humidity 50    
Precipitation  
Precipitation 0.00 in - - ()
Sea Level Pressure  
Sea Level Pressure 29.95 in    
Wind  
Wind Speed 13 mph (SW)    
Max Wind Speed 25 mph    
Max Gust Speed 30 mph    
Visibility 10 miles    
Events      
Averages and records for this station are not official NWS values.
T = Trace of Precipitation, MM = Missing Value Source: NWS Daily Summary

Daily Weather History Graph

Daily Weather History Graph

Search for Another Location

Airport:

Trip Planner

Search our weather history database for the weather conditions in past years. The results will help you decide how hot, cold, wet, or windy it might be!

Date:

Astronomy

Jan. 18, 2013 Rise Set
Actual Time 7:47 AM CST 5:15 PM CST
Civil Twilight 7:16 AM CST 5:46 PM CST
Nautical Twilight 6:41 AM CST 6:21 PM CST
Astronomical Twilight 6:07 AM CST 6:55 PM CST
Moon 11:13 AM CST (1/18) 12:19 AM CST (1/18)
Length of Visible Light 10h 29m
Length of Day
9h 27m
Waxing Crescent, 47% of the Moon is Illuminated
Jan 18
Waxing Crescent
Jan 18
First Quarter
Jan 26
Full
Feb 3
Last Quarter
Feb 10
New

Hourly Weather History & Observations

Time (CST) Temp. Windchill Dew Point Humidity Pressure Visibility Wind Dir Wind Speed Gust Speed Precip Events Conditions
12:53 AM 26.1 °F 18.4 °F 23.0 °F 88% 30.24 in 7.0 mi SE 6.9 mph - N/A   Clear
1:53 AM 27.0 °F 18.0 °F 24.1 °F 89% 30.19 in 7.0 mi South 9.2 mph - N/A   Clear
2:53 AM 30.0 °F 21.1 °F 26.1 °F 85% 30.15 in 8.0 mi South 10.4 mph - N/A   Clear
3:53 AM 32.0 °F 20.8 °F 27.0 °F 82% 30.09 in 9.0 mi SSW 17.3 mph - N/A   Clear
4:53 AM 33.1 °F 22.6 °F 27.0 °F 78% 30.05 in 10.0 mi SSW 16.1 mph - N/A   Clear
5:53 AM 34.0 °F 24.6 °F 27.0 °F 75% 30.02 in 10.0 mi SSW 13.8 mph - N/A   Clear
6:53 AM 34.0 °F 23.8 °F 27.0 °F 75% 29.99 in 10.0 mi SSW 16.1 mph - N/A   Clear
7:53 AM 34.0 °F 22.4 °F 26.1 °F 73% 29.95 in 10.0 mi SSW 20.7 mph - N/A   Clear
8:53 AM 35.1 °F 24.8 °F 27.0 °F 72% 29.93 in 10.0 mi SSW 17.3 mph 25.3 mph N/A   Clear
9:53 AM 39.0 °F 29.3 °F 28.0 °F 65% 29.95 in 10.0 mi SW 19.6 mph - N/A   Clear
10:53 AM 41.0 °F 31.1 °F 28.0 °F 60% 29.92 in 10.0 mi SW 23.0 mph 29.9 mph N/A   Clear
11:53 AM 43.0 °F 33.3 °F 28.9 °F 58% 29.90 in 10.0 mi WSW 25.3 mph - N/A   Clear
12:53 PM 46.0 °F 38.8 °F 30.0 °F 54% 29.85 in 10.0 mi SW 18.4 mph - N/A   Clear
1:53 PM 48.0 °F - 30.0 °F 50% 29.84 in 10.0 mi WSW 19.6 mph 25.3 mph N/A   Clear
2:53 PM 48.0 °F - 30.0 °F 50% 29.85 in 10.0 mi WSW 16.1 mph - N/A   Clear
3:53 PM 48.0 °F - 30.9 °F 52% 29.86 in 10.0 mi West 11.5 mph - N/A   Clear
4:53 PM 42.1 °F 37.1 °F 30.0 °F 62% 29.87 in 10.0 mi WSW 8.1 mph - N/A   Clear
5:53 PM 39.0 °F 36.8 °F 30.0 °F 70% 29.90 in 10.0 mi NW 3.5 mph - N/A   Clear
6:53 PM 35.1 °F 29.3 °F 28.0 °F 76% 29.90 in 10.0 mi SW 6.9 mph - N/A   Clear
7:53 PM 34.0 °F 26.0 °F 28.0 °F 79% 29.89 in 10.0 mi SW 10.4 mph - N/A   Clear
8:53 PM 34.0 °F 29.8 °F 28.0 °F 79% 29.89 in 10.0 mi WSW 4.6 mph - N/A   Clear
9:53 PM 34.0 °F 27.2 °F 28.0 °F 79% 29.87 in 10.0 mi SW 8.1 mph - N/A   Clear
10:53 PM 34.0 °F 29.8 °F 30.0 °F 85% 29.86 in 10.0 mi SW 4.6 mph - N/A   Clear
11:53 PM 36.0 °F 30.3 °F 30.0 °F 79% 29.83 in 10.0 mi WSW 6.9 mph - N/A   Clear